| time (UTC) | temp F | wind direction | speed MPH | gust MPH | rain 1hr in | rain 24hr in | rain mn in | humidity % | barometer mb |
| 20260504070211 | 46 | 324 | 2.0 | 2.0 | 0.00 | 0.00 | 0.00 | 44 | 1011.0 |
| 20260504060131 | 46 | 58 | 2.0 | 2.0 | 0.00 | 0.00 | 0.00 | 41 | 1011.6 |
| 20260504050600 | 47 | 289 | 2.0 | 3.0 | 0.00 | 0.00 | 0.00 | 40 | 1012.1 |
| 20260504045553 | 46 | 331 | 1.0 | 2.0 | 0.00 | 0.00 | 0.00 | 41 | 1011.7 |
| 20260504045048 | 47 | 299 | 1.0 | 1.0 | 0.00 | 0.00 | 0.00 | 40 | 1011.8 |
| 20260504044546 | 47 | 334 | 1.0 | 1.0 | 0.00 | 0.00 | 0.00 | 40 | 1011.7 |
| 20260504044043 | 47 | 319 | 2.0 | 3.0 | 0.00 | 0.00 | 0.00 | 40 | 1011.7 |
| 20260504043540 | 47 | 316 | 2.0 | 3.0 | 0.00 | 0.00 | 0.00 | 40 | 1011.5 |
| 20260504043037 | 47 | 329 | 2.0 | 2.0 | 0.00 | 0.00 | 0.00 | 40 | 1011.6 |
| 20260504042534 | 46 | 234 | 4.0 | 4.0 | 0.00 | 0.00 | 0.00 | 41 | 1011.6 |
| 20260504042031 | 46 | 271 | 2.0 | 2.0 | 0.00 | 0.00 | 0.00 | 44 | 1011.5 |
| 20260504041527 | 46 | 212 | 2.0 | 3.0 | 0.00 | 0.00 | 0.00 | 44 | 1011.4 |
| 20260504041023 | 46 | 261 | 2.0 | 3.0 | 0.00 | 0.00 | 0.00 | 45 | 1011.4 |
| 20260504040521 | 46 | 296 | 2.0 | 3.0 | 0.00 | 0.00 | 0.00 | 43 | 1011.4 |
| 20260504040018 | 46 | 269 | 2.0 | 3.0 | 0.00 | 0.00 | 0.00 | 47 | 1011.2 |
| 20260504035515 | 46 | 293 | 4.0 | 4.0 | 0.00 | 0.00 | 0.00 | 43 | 1011.5 |
| 20260504035011 | 46 | 295 | 3.0 | 3.0 | 0.00 | 0.00 | 0.00 | 44 | 1011.8 |
| 20260504034509 | 46 | 318 | 2.0 | 3.0 | 0.00 | 0.00 | 0.00 | 45 | 1011.5 |
| 20260504034006 | 46 | 241 | 3.0 | 4.0 | 0.00 | 0.00 | 0.00 | 44 | 1011.5 |
| 20260504033503 | 46 | 284 | 3.0 | 3.0 | 0.00 | 0.00 | 0.00 | 45 | 1011.4 |
| 20260504033000 | 46 | 274 | 3.0 | 6.0 | 0.00 | 0.00 | 0.00 | 43 | 1011.4 |
| 20260504032457 | 46 | 323 | 2.0 | 3.0 | 0.00 | 0.00 | 0.00 | 45 | 1011.4 |
| 20260504031954 | 46 | 254 | 2.0 | 2.0 | 0.00 | 0.00 | 0.00 | 44 | 1011.5 |
| 20260504031450 | 47 | 284 | 4.0 | 6.0 | 0.00 | 0.00 | 0.00 | 43 | 1011.2 |
| 20260504030947 | 46 | 13 | 1.0 | 1.0 | 0.00 | 0.00 | 0.00 | 46 | 1011.5 |
| 20260504030445 | 47 | 252 | 1.0 | 2.0 | 0.00 | 0.00 | 0.00 | 44 | 1011.5 |
| 20260504025940 | 47 | 269 | 3.0 | 4.0 | 0.00 | 0.00 | 0.00 | 42 | 1011.5 |
| 20260504025437 | 47 | 258 | 2.0 | 3.0 | 0.00 | 0.00 | 0.00 | 43 | 1011.4 |
| 20260504024934 | 47 | 184 | 3.0 | 4.0 | 0.00 | 0.00 | 0.00 | 42 | 1011.4 |
| 20260504024431 | 47 | 277 | 1.0 | 2.0 | 0.00 | 0.00 | 0.00 | 42 | 1011.5 |
| 20260504023928 | 47 | 15 | 1.0 | 1.0 | 0.00 | 0.00 | 0.00 | 43 | 1011.5 |
| 20260504023425 | 47 | 267 | 1.0 | 1.0 | 0.00 | 0.00 | 0.00 | 44 | 1011.5 |
| 20260504022920 | 47 | 242 | 3.0 | 3.0 | 0.00 | 0.00 | 0.00 | 41 | 1011.4 |
| 20260504022417 | 47 | 108 | 2.0 | 3.0 | 0.00 | 0.00 | 0.00 | 41 | 1011.5 |
| 20260504021914 | 47 | 23 | 0.0 | 1.0 | 0.00 | 0.00 | 0.00 | 42 | 1011.4 |
| 20260504021411 | 47 | 146 | 3.0 | 6.0 | 0.00 | 0.00 | 0.00 | 41 | 1011.2 |
| 20260504020908 | 46 | 245 | 1.0 | 1.0 | 0.00 | 0.00 | 0.00 | 42 | 1011.4 |
| 20260504020405 | 47 | 73 | 1.0 | 2.0 | 0.00 | 0.00 | 0.00 | 41 | 1011.4 |
| 20260504015901 | 46 | 340 | 1.0 | 1.0 | 0.00 | 0.00 | 0.00 | 42 | 1011.1 |
| 20260504015357 | 46 | 286 | 2.0 | 2.0 | 0.00 | 0.00 | 0.00 | 41 | 1011.2 |
| 20260504014853 | 46 | 33 | 1.0 | 1.0 | 0.00 | 0.00 | 0.00 | 41 | 1011.1 |
| 20260504014349 | 46 | 100 | 1.0 | 1.0 | 0.00 | 0.00 | 0.00 | 41 | 1011.1 |
| 20260504013847 | 46 | 91 | 2.0 | 3.0 | 0.00 | 0.00 | 0.00 | 41 | 1011.1 |
| 20260504013345 | 46 | 148 | 1.0 | 2.0 | 0.00 | 0.00 | 0.00 | 41 | 1011.1 |
| 20260504012841 | 46 | 62 | 0.0 | 1.0 | 0.00 | 0.00 | 0.00 | 39 | 1011.0 |
| 20260504012339 | 46 | 103 | 2.0 | 3.0 | 0.00 | 0.00 | 0.00 | 40 | 1011.1 |
| 20260504011836 | 46 | 129 | 0.0 | 1.0 | 0.00 | 0.00 | 0.00 | 39 | 1011.0 |
| 20260504011332 | 46 | 10 | 0.0 | 1.0 | 0.00 | 0.00 | 0.00 | 39 | 1010.9 |
| 20260504010829 | 47 | 120 | 0.0 | 2.0 | 0.00 | 0.00 | 0.00 | 39 | 1011.0 |
| 20260504010324 | 47 | 118 | 2.0 | 3.0 | 0.00 | 0.00 | 0.00 | 38 | 1010.9 |
| 20260504005821 | 46 | 129 | 1.0 | 2.0 | 0.00 | 0.00 | 0.00 | 39 | 1011.1 |
| 20260504005318 | 46 | 129 | 0.0 | 0.0 | 0.00 | 0.00 | 0.00 | 39 | 1011.0 |
| 20260504004816 | 46 | 142 | 1.0 | 2.0 | 0.00 | 0.00 | 0.00 | 39 | 1010.8 |
| 20260504004313 | 47 | 135 | 0.0 | 0.0 | 0.00 | 0.00 | 0.00 | 39 | 1010.8 |
| 20260504003809 | 47 | 128 | 0.0 | 0.0 | 0.00 | 0.00 | 0.00 | 39 | 1011.0 |
| 20260504003307 | 47 | 97 | 0.0 | 0.0 | 0.00 | 0.00 | 0.00 | 38 | 1011.0 |
| 20260504002803 | 47 | 99 | 1.0 | 1.0 | 0.00 | 0.00 | 0.00 | 37 | 1010.9 |
| 20260504002300 | 47 | 72 | 0.0 | 1.0 | 0.00 | 0.00 | 0.00 | 38 | 1010.8 |
| 20260504001758 | 47 | 56 | 0.0 | 0.0 | 0.00 | 0.00 | 0.00 | 37 | 1010.9 |
| 20260504001254 | 47 | 62 | 0.0 | 0.0 | 0.00 | 0.00 | 0.00 | 38 | 1010.9 |
| 20260504000751 | 48 | 270 | 0.0 | 0.0 | 0.00 | 0.00 | 0.00 | 37 | 1010.9 |
| 20260504000248 | 48 | 100 | 1.0 | 1.0 | 0.00 | 0.00 | 0.00 | 37 | 1010.7 |
| 20260503235746 | 49 | 335 | 0.0 | 1.0 | 0.00 | 0.00 | 0.00 | 36 | 1011.0 |
| 20260503235243 | 50 | 4 | 0.0 | 0.0 | 0.00 | 0.00 | 0.00 | 36 | 1010.9 |
| 20260503234741 | 50 | 231 | 1.0 | 2.0 | 0.00 | 0.00 | 0.00 | 35 | 1010.8 |
| 20260503234239 | 50 | 311 | 0.0 | 0.0 | 0.00 | 0.00 | 0.00 | 36 | 1010.9 |
| 20260503233736 | 51 | 264 | 1.0 | 1.0 | 0.00 | 0.00 | 0.00 | 37 | 1010.7 |
| 20260503233231 | 51 | 1 | 0.0 | 1.0 | 0.00 | 0.00 | 0.00 | 35 | 1010.6 |
| 20260503232728 | 51 | 247 | 3.0 | 3.0 | 0.00 | 0.00 | 0.00 | 33 | 1010.9 |
| 20260503232226 | 51 | 203 | 2.0 | 2.0 | 0.00 | 0.00 | 0.00 | 34 | 1010.7 |
| 20260503231724 | 52 | 269 | 1.0 | 2.0 | 0.00 | 0.00 | 0.00 | 36 | 1010.7 |
| 20260503231220 | 52 | 276 | 2.0 | 2.0 | 0.00 | 0.00 | 0.00 | 35 | 1010.9 |
| 20260503230716 | 52 | 341 | 4.0 | 4.0 | 0.00 | 0.00 | 0.00 | 33 | 1010.8 |
| 20260503230214 | 51 | 193 | 1.0 | 1.0 | 0.00 | 0.00 | 0.00 | 34 | 1010.6 |
| 20260503225712 | 51 | 169 | 6.0 | 8.0 | 0.00 | 0.00 | 0.00 | 33 | 1010.4 |
| 20260503225211 | 52 | 257 | 2.0 | 3.0 | 0.00 | 0.00 | 0.00 | 35 | 1010.6 |
| 20260503224709 | 52 | 274 | 2.0 | 3.0 | 0.00 | 0.00 | 0.00 | 33 | 1010.6 |
| 20260503224207 | 51 | 279 | 3.0 | 4.0 | 0.00 | 0.00 | 0.00 | 33 | 1010.6 |
| 20260503223704 | 51 | 282 | 5.0 | 6.0 | 0.00 | 0.00 | 0.00 | 33 | 1010.6 |
| 20260503223201 | 52 | 267 | 3.0 | 4.0 | 0.00 | 0.00 | 0.00 | 34 | 1010.5 |
| 20260503222658 | 52 | 324 | 4.0 | 4.0 | 0.00 | 0.00 | 0.00 | 35 | 1010.3 |
| 20260503222155 | 52 | 292 | 4.0 | 4.0 | 0.00 | 0.00 | 0.00 | 33 | 1010.5 |
| 20260503221654 | 51 | 294 | 5.0 | 7.0 | 0.00 | 0.00 | 0.00 | 33 | 1010.3 |
| 20260503221151 | 52 | 316 | 4.0 | 7.0 | 0.00 | 0.00 | 0.00 | 32 | 1010.0 |
| 20260503220647 | 53 | 277 | 4.0 | 4.0 | 0.00 | 0.00 | 0.00 | 32 | 1010.4 |
| 20260503220144 | 52 | 294 | 3.0 | 3.0 | 0.00 | 0.00 | 0.00 | 34 | 1010.6 |
| 20260503215641 | 52 | 264 | 4.0 | 7.0 | 0.00 | 0.00 | 0.00 | 33 | 1010.5 |
| 20260503215137 | 52 | 265 | 4.0 | 8.0 | 0.00 | 0.00 | 0.00 | 33 | 1010.4 |
| 20260503214631 | 53 | 242 | 2.0 | 3.0 | 0.00 | 0.00 | 0.00 | 32 | 1010.4 |
| 20260503214126 | 52 | 259 | 2.0 | 3.0 | 0.00 | 0.00 | 0.00 | 33 | 1010.6 |
| 20260503213620 | 53 | 320 | 4.0 | 4.0 | 0.00 | 0.00 | 0.00 | 33 | 1010.4 |
| 20260503213116 | 52 | 280 | 6.0 | 8.0 | 0.00 | 0.00 | 0.00 | 34 | 1010.4 |
| 20260503212614 | 52 | 250 | 7.0 | 9.0 | 0.00 | 0.00 | 0.00 | 33 | 1010.1 |
| 20260503212111 | 52 | 241 | 4.0 | 8.0 | 0.00 | 0.00 | 0.00 | 32 | 1010.3 |
| 20260503211609 | 52 | 276 | 5.0 | 8.0 | 0.00 | 0.00 | 0.00 | 33 | 1010.0 |
| 20260503211104 | 52 | 250 | 2.0 | 4.0 | 0.00 | 0.00 | 0.00 | 34 | 1010.4 |
| 20260503210600 | 52 | 306 | 4.0 | 6.0 | 0.00 | 0.00 | 0.00 | 35 | 1010.4 |
| 20260503210055 | 52 | 296 | 2.0 | 2.0 | 0.00 | 0.00 | 0.00 | 35 | 1010.3 |
| 20260503205553 | 52 | 285 | 6.0 | 7.0 | 0.00 | 0.00 | 0.00 | 34 | 1010.4 |
| 20260503205049 | 52 | 243 | 7.0 | 8.0 | 0.00 | 0.00 | 0.00 | 35 | 1010.4 |
| 20260503204547 | 51 | 263 | 3.0 | 4.0 | 0.00 | 0.00 | 0.00 | 34 | 1010.3 |
| 20260503204044 | 52 | 259 | 5.0 | 6.0 | 0.00 | 0.00 | 0.00 | 35 | 1010.4 |
| 20260503203541 | 52 | 311 | 4.0 | 6.0 | 0.00 | 0.00 | 0.00 | 34 | 1010.7 |
| 20260503203038 | 51 | 254 | 5.0 | 7.0 | 0.00 | 0.00 | 0.00 | 34 | 1010.5 |
| 20260503202536 | 51 | 276 | 5.0 | 6.0 | 0.00 | 0.00 | 0.00 | 37 | 1010.3 |
| 20260503202033 | 50 | 289 | 7.0 | 10.0 | 0.00 | 0.00 | 0.00 | 35 | 1010.6 |
| 20260503201531 | 50 | 262 | 4.0 | 6.0 | 0.00 | 0.00 | 0.00 | 35 | 1010.7 |
| 20260503201028 | 51 | 23 | 5.0 | 7.0 | 0.00 | 0.00 | 0.00 | 37 | 1010.5 |
| 20260503200524 | 50 | 207 | 5.0 | 8.0 | 0.00 | 0.00 | 0.00 | 37 | 1010.5 |
| 20260503200021 | 51 | 342 | 1.0 | 2.0 | 0.00 | 0.00 | 0.00 | 38 | 1010.9 |
| 20260503195518 | 50 | 246 | 7.0 | 9.0 | 0.00 | 0.00 | 0.00 | 39 | 1010.8 |
| 20260503195015 | 51 | 260 | 7.0 | 8.0 | 0.00 | 0.00 | 0.00 | 36 | 1010.8 |
| 20260503194513 | 50 | 248 | 2.0 | 3.0 | 0.00 | 0.00 | 0.00 | 39 | 1010.7 |
| 20260503194012 | 50 | 324 | 6.0 | 9.0 | 0.00 | 0.00 | 0.00 | 37 | 1010.7 |
| 20260503193509 | 50 | 218 | 5.0 | 7.0 | 0.00 | 0.00 | 0.00 | 38 | 1010.9 |
| 20260503193004 | 50 | 318 | 5.0 | 9.0 | 0.00 | 0.00 | 0.00 | 38 | 1011.0 |
| 20260503192500 | 50 | 242 | 5.0 | 8.0 | 0.00 | 0.00 | 0.00 | 38 | 1010.9 |
| 20260503191956 | 50 | 250 | 6.0 | 7.0 | 0.00 | 0.00 | 0.00 | 38 | 1011.0 |
| 20260503191454 | 49 | 255 | 4.0 | 7.0 | 0.00 | 0.00 | 0.00 | 41 | 1011.0 |
| 20260503190950 | 49 | 290 | 2.0 | 6.0 | 0.00 | 0.00 | 0.00 | 42 | 1011.0 |
| 20260503190448 | 49 | 277 | 4.0 | 7.0 | 0.00 | 0.00 | 0.00 | 44 | 1011.1 |
| 20260503185945 | 48 | 289 | 3.0 | 4.0 | 0.00 | 0.00 | 0.00 | 43 | 1011.4 |
| 20260503185441 | 49 | 291 | 5.0 | 7.0 | 0.00 | 0.00 | 0.00 | 42 | 1011.5 |
| 20260503184940 | 48 | 255 | 6.0 | 8.0 | 0.00 | 0.00 | 0.00 | 41 | 1011.5 |
| 20260503184437 | 47 | 283 | 5.0 | 7.0 | 0.00 | 0.00 | 0.00 | 41 | 1011.8 |
| 20260503183933 | 48 | 286 | 3.0 | 4.0 | 0.00 | 0.00 | 0.00 | 44 | 1011.6 |
| 20260503183430 | 47 | 297 | 5.0 | 7.0 | 0.00 | 0.00 | 0.00 | 44 | 1011.6 |
| 20260503182927 | 49 | 271 | 5.0 | 8.0 | 0.00 | 0.00 | 0.00 | 41 | 1011.7 |
| 20260503182426 | 47 | 272 | 6.0 | 6.0 | 0.00 | 0.00 | 0.00 | 44 | 1011.4 |
| 20260503181923 | 48 | 274 | 6.0 | 8.0 | 0.00 | 0.00 | 0.00 | 43 | 1011.7 |
| 20260503181420 | 46 | 269 | 7.0 | 8.0 | 0.00 | 0.00 | 0.00 | 44 | 1011.6 |
| 20260503180916 | 47 | 245 | 6.0 | 7.0 | 0.00 | 0.00 | 0.00 | 45 | 1011.5 |
| 20260503180414 | 46 | 290 | 5.0 | 7.0 | 0.00 | 0.00 | 0.00 | 45 | 1011.5 |
| 20260503175910 | 46 | 292 | 7.0 | 9.0 | 0.00 | 0.00 | 0.00 | 44 | 1011.6 |
| 20260503175408 | 45 | 289 | 5.0 | 7.0 | 0.00 | 0.00 | 0.00 | 45 | 1011.8 |
| 20260503174903 | 45 | 281 | 6.0 | 7.0 | 0.00 | 0.00 | 0.00 | 46 | 1011.7 |
| 20260503174402 | 45 | 247 | 8.0 | 11.0 | 0.00 | 0.00 | 0.00 | 48 | 1011.5 |
| 20260503173856 | 44 | 234 | 4.0 | 4.0 | 0.00 | 0.00 | 0.00 | 47 | 1011.7 |
| 20260503173353 | 46 | 275 | 9.0 | 13.0 | 0.00 | 0.00 | 0.00 | 46 | 1011.6 |
| 20260503172849 | 45 | 242 | 6.0 | 7.0 | 0.00 | 0.00 | 0.00 | 47 | 1011.2 |
| 20260503172347 | 45 | 247 | 10.0 | 11.0 | 0.00 | 0.00 | 0.00 | 48 | 1011.6 |
| 20260503171843 | 44 | 241 | 6.0 | 7.0 | 0.00 | 0.00 | 0.00 | 47 | 1011.5 |
| 20260503171340 | 46 | 305 | 2.0 | 4.0 | 0.00 | 0.00 | 0.00 | 52 | 1011.5 |
| 20260503170837 | 45 | 254 | 4.0 | 6.0 | 0.00 | 0.00 | 0.00 | 50 | 1011.7 |
| 20260503170334 | 44 | 277 | 6.0 | 8.0 | 0.00 | 0.00 | 0.00 | 48 | 1011.7 |
| 20260503150726 | 39 | 276 | 9.0 | 14.0 | 0.00 | 0.00 | 0.00 | 55 | 1012.3 |
| 20260503150222 | 38 | 20 | 2.0 | 3.0 | 0.00 | 0.00 | 0.00 | 58 | 1012.2 |
| 20260503140147 | 36 | 270 | 11.0 | 14.0 | 0.00 | 0.00 | 0.00 | 61 | 1011.6 |
| 20260503131116 | 34 | 293 | 6.0 | 6.0 | 0.00 | 0.00 | 0.00 | 68 | 1011.5 |
| 20260503130614 | 34 | 308 | 13.0 | 18.0 | 0.00 | 0.00 | 0.00 | 67 | 1011.1 |
| 20260503130112 | 34 | 270 | 5.0 | 6.0 | 0.00 | 0.00 | 0.00 | 71 | 1011.2 |
| 20260503110504 | 30 | 242 | 9.0 | 10.0 | 0.00 | 0.00 | 0.00 | 85 | 1010.1 |
| 20260503090355 | 31 | 234 | 9.0 | 13.0 | 0.00 | 0.00 | 0.00 | 84 | 1008.5 |
| 20260503081323 | 32 | 253 | 10.0 | 13.0 | 0.00 | 0.00 | 0.00 | 85 | 1008.4 |
| 20260503080819 | 32 | 264 | 7.0 | 9.0 | 0.00 | 0.00 | 0.00 | 86 | 1008.3 |
| 20260503080317 | 32 | 241 | 9.0 | 11.0 | 0.00 | 0.00 | 0.00 | 87 | 1008.5 |